Location: Friaudour
(46.0460°N, 1.2873°E)
Time: 08:20:55
(UTC+00:00)

USA 267 - Pass Details

Date: 14 July 2020
Orbit: 1102 x 1106 km, 123.0° (Epoch: 12 August)

Event Time Altitude Azimuth Distance (km) Brightness Sun altitude
Exits shadow 00:32:10 40° 182° (S) 1,579 3.6 -21.9°
Maximum altitude 00:34:01 50° 226° (SW) 1,378 3.4 -21.9°
Drops below altitude 10° 00:40:21 10° 301° (WNW) 2,964 5.8 -21.7°
Sets 00:42:57 0° 307° (NW) 3,925 6.5 -21.6°
